Time,TemperatureF,DewpointF,PressureIn,WindDirection,WindDirectionDegrees,WindSpeedMPH,WindSpeedGustMPH,Humidity,HourlyPrecipIn,Conditions,Clouds,dailyrainin,SolarRadiationWatts/m^2,SoftwareType,DateUTC
2013-04-10 00:00:00,61.3,52.2,29.89,WNW,296,0.0,0.0,72,0.00,,,0.00,0,WeatherCatV1.15B25,2013-04-10 04:00:00,
2013-04-10 00:01:00,61.3,52.2,29.89,WNW,296,0.0,0.0,72,0.00,,,0.00,0,WeatherCatV1.15B25,2013-04-10 04:01:00,
2013-04-10 00:06:00,61.1,52.0,29.89,WNW,296,0.0,0.0,72,0.00,,,0.00,0,WeatherCatV1.15B25,2013-04-10 04:06:00,
2013-04-10 00:11:00,60.8,51.7,29.89,WNW,296,0.0,0.0,72,0.00,,,0.00,0,WeatherCatV1.15B25,2013-04-10 04:11:00,
2013-04-10 00:16:00,60.6,51.9,29.89,WNW,296,0.0,1.0,73,0.00,,,0.00,0,WeatherCatV1.15B25,2013-04-10 04:16:00,
2013-04-10 00:21:00,60.5,51.8,29.89,WNW,296,0.0,0.0,73,0.00,,,0.00,0,WeatherCatV1.15B25,2013-04-10 04:21:00,
2013-04-10 00:26:00,60.3,51.6,29.89,WNW,296,1.0,1.0,73,0.00,,,0.00,0,WeatherCatV1.15B25,2013-04-10 04:26:00,
2013-04-10 00:31:00,60.0,51.3,29.89,WNW,295,1.0,1.0,73,0.00,,,0.00,0,WeatherCatV1.15B25,2013-04-10 04:31:00,
2013-04-10 00:36:00,59.7,51.4,29.89,West,279,1.0,1.0,74,0.00,,,0.00,0,WeatherCatV1.15B25,2013-04-10 04:36:00,
2013-04-10 00:40:00,59.5,51.6,29.89,West,278,0.0,0.0,75,0.00,,,0.00,0,WeatherCatV1.15B25,2013-04-10 04:40:00,
2013-04-10 00:44:00,59.4,51.5,29.90,West,278,0.0,1.0,75,0.00,,,0.00,0,WeatherCatV1.15B25,2013-04-10 04:44:00,
2013-04-10 00:46:00,59.3,51.4,29.90,West,278,0.0,0.0,75,0.00,,,0.00,0,WeatherCatV1.15B25,2013-04-10 04:46:00,
2013-04-10 00:51:00,59.2,51.3,29.90,West,278,0.0,1.0,75,0.00,,,0.00,0,WeatherCatV1.15B25,2013-04-10 04:51:00,
2013-04-10 00:57:00,59.0,51.1,29.90,West,278,0.0,1.0,75,0.00,,,0.00,0,WeatherCatV1.15B25,2013-04-10 04:57:00,
2013-04-10 01:01:00,58.9,51.3,29.90,West,278,0.0,1.0,76,0.00,,,0.00,0,WeatherCatV1.15B25,2013-04-10 05:01:00,
2013-04-10 01:06:00,58.7,51.2,29.90,West,278,0.0,2.0,76,0.00,,,0.00,0,WeatherCatV1.15B25,2013-04-10 05:06:00,
2013-04-10 01:11:00,58.5,51.0,29.90,West,278,1.0,1.0,76,0.00,,,0.00,0,WeatherCatV1.15B25,2013-04-10 05:11:00,
2013-04-10 01:16:00,58.4,50.9,29.90,WSW,244,1.0,1.0,76,0.00,,,0.00,0,WeatherCatV1.15B25,2013-04-10 05:16:00,
2013-04-10 01:21:00,58.3,51.1,29.90,WSW,244,1.0,2.0,77,0.00,,,0.00,0,WeatherCatV1.15B25,2013-04-10 05:21:00,
2013-04-10 01:26:00,58.1,50.9,29.90,WSW,244,1.0,2.0,77,0.00,,,0.00,0,WeatherCatV1.15B25,2013-04-10 05:26:00,
2013-04-10 01:31:00,57.9,50.7,29.90,WSW,244,1.0,1.0,77,0.00,,,0.00,0,WeatherCatV1.15B25,2013-04-10 05:31:00,
2013-04-10 01:36:00,57.9,51.1,29.90,WNW,283,0.0,1.0,78,0.00,,,0.00,0,WeatherCatV1.15B25,2013-04-10 05:36:00,
2013-04-10 01:41:00,57.9,50.7,29.90,West,264,1.0,2.0,77,0.00,,,0.00,0,WeatherCatV1.15B25,2013-04-10 05:41:00,
2013-04-10 01:46:00,57.8,50.6,29.90,WSW,239,1.0,2.0,77,0.00,,,0.00,0,WeatherCatV1.15B25,2013-04-10 05:46:00,
2013-04-10 01:51:00,57.8,50.6,29.90,WSW,239,0.0,1.0,77,0.00,,,0.00,0,WeatherCatV1.15B25,2013-04-10 05:51:00,
2013-04-10 01:56:00,57.7,50.9,29.90,WSW,239,0.0,1.0,78,0.00,,,0.00,0,WeatherCatV1.15B25,2013-04-10 05:56:00,
2013-04-10 02:01:00,57.7,50.9,29.90,WSW,239,0.0,1.0,78,0.00,,,0.00,0,WeatherCatV1.15B25,2013-04-10 06:01:00,
2013-04-10 02:06:00,57.7,50.9,29.90,WSW,239,1.0,1.0,78,0.00,,,0.00,0,WeatherCatV1.15B25,2013-04-10 06:06:00,
2013-04-10 02:11:00,57.7,50.9,29.90,WSW,239,0.0,1.0,78,0.00,,,0.00,0,WeatherCatV1.15B25,2013-04-10 06:11:00,
2013-04-10 02:16:00,57.7,50.9,29.90,WSW,239,0.0,0.0,78,0.00,,,0.00,0,WeatherCatV1.15B25,2013-04-10 06:16:00,
2013-04-10 02:21:00,57.6,50.8,29.89,WSW,239,0.0,0.0,78,0.00,,,0.00,0,WeatherCatV1.15B25,2013-04-10 06:21:00,
2013-04-10 02:26:00,57.5,50.7,29.89,WSW,239,0.0,0.0,78,0.00,,,0.00,0,WeatherCatV1.15B25,2013-04-10 06:26:00,
2013-04-10 02:31:00,57.3,50.5,29.89,WSW,239,1.0,1.0,78,0.00,,,0.00,0,WeatherCatV1.15B25,2013-04-10 06:31:00,
2013-04-10 02:36:00,57.0,50.2,29.89,WSW,239,1.0,1.0,78,0.00,,,0.00,0,WeatherCatV1.15B25,2013-04-10 06:36:00,
2013-04-10 02:41:00,56.9,50.5,29.90,WSW,239,1.0,2.0,79,0.00,,,0.00,0,WeatherCatV1.15B25,2013-04-10 06:41:00,
2013-04-10 02:46:00,56.8,50.4,29.90,WSW,239,1.0,2.0,79,0.00,,,0.00,0,WeatherCatV1.15B25,2013-04-10 06:46:00,
2013-04-10 02:51:00,56.7,50.3,29.90,WSW,250,1.0,2.0,79,0.00,,,0.00,0,WeatherCatV1.15B25,2013-04-10 06:51:00,
2013-04-10 02:57:00,56.7,50.3,29.90,WSW,251,1.0,1.0,79,0.00,,,0.00,0,WeatherCatV1.15B25,2013-04-10 06:57:00,
2013-04-10 03:01:00,56.8,50.4,29.90,WSW,251,1.0,1.0,79,0.00,,,0.00,0,WeatherCatV1.15B25,2013-04-10 07:01:00,
2013-04-10 03:06:00,56.8,50.4,29.90,WSW,251,0.0,1.0,79,0.00,,,0.00,0,WeatherCatV1.15B25,2013-04-10 07:06:00,
2013-04-10 03:11:00,56.9,50.5,29.90,WSW,251,1.0,1.0,79,0.00,,,0.00,0,WeatherCatV1.15B25,2013-04-10 07:11:00,
2013-04-10 03:16:00,56.8,50.4,29.90,WSW,251,1.0,1.0,79,0.00,,,0.00,0,WeatherCatV1.15B25,2013-04-10 07:16:00,
2013-04-10 03:21:00,56.7,50.3,29.90,WSW,251,1.0,1.0,79,0.00,,,0.00,0,WeatherCatV1.15B25,2013-04-10 07:21:00,
2013-04-10 03:26:00,56.4,50.0,29.91,WSW,251,1.0,1.0,79,0.00,,,0.00,0,WeatherCatV1.15B25,2013-04-10 07:26:00,
2013-04-10 03:31:00,56.2,49.8,29.91,WSW,251,0.0,1.0,79,0.00,,,0.00,0,WeatherCatV1.15B25,2013-04-10 07:31:00,
2013-04-10 03:36:00,56.0,49.9,29.91,WSW,251,1.0,1.0,80,0.00,,,0.00,0,WeatherCatV1.15B25,2013-04-10 07:36:00,
2013-04-10 03:41:00,56.0,49.9,29.91,WSW,251,2.0,2.0,80,0.00,,,0.00,0,WeatherCatV1.15B25,2013-04-10 07:41:00,
2013-04-10 03:46:00,56.1,50.0,29.91,WSW,251,1.0,2.0,80,0.00,,,0.00,0,WeatherCatV1.15B25,2013-04-10 07:46:00,
2013-04-10 03:51:00,56.0,49.9,29.91,WSW,251,1.0,2.0,80,0.00,,,0.00,0,WeatherCatV1.15B25,2013-04-10 07:51:00,
2013-04-10 03:56:00,56.1,50.0,29.91,WSW,251,1.0,2.0,80,0.00,,,0.00,0,WeatherCatV1.15B25,2013-04-10 07:56:00,
2013-04-10 04:01:00,56.0,49.9,29.91,WSW,251,0.0,1.0,80,0.00,,,0.00,0,WeatherCatV1.15B25,2013-04-10 08:01:00,
2013-04-10 04:06:00,55.8,49.7,29.92,WSW,256,0.0,2.0,80,0.00,,,0.00,0,WeatherCatV1.15B25,2013-04-10 08:06:00,
2013-04-10 04:11:00,55.7,49.6,29.92,WSW,257,1.0,2.0,80,0.00,,,0.00,0,WeatherCatV1.15B25,2013-04-10 08:11:00,
2013-04-10 04:16:00,55.6,49.9,29.92,WSW,257,0.0,2.0,81,0.00,,,0.00,0,WeatherCatV1.15B25,2013-04-10 08:16:00,
2013-04-10 04:21:00,55.7,50.0,29.92,WSW,257,0.0,0.0,81,0.00,,,0.00,0,WeatherCatV1.15B25,2013-04-10 08:21:00,
2013-04-10 04:26:00,55.8,50.1,29.92,WSW,257,0.0,0.0,81,0.00,,,0.00,0,WeatherCatV1.15B25,2013-04-10 08:26:00,
2013-04-10 04:31:00,55.7,50.0,29.92,WSW,257,0.0,1.0,81,0.00,,,0.00,0,WeatherCatV1.15B25,2013-04-10 08:31:00,
2013-04-10 04:36:00,55.7,49.6,29.92,WSW,257,0.0,0.0,80,0.00,,,0.00,0,WeatherCatV1.15B25,2013-04-10 08:36:00,
2013-04-10 04:41:00,55.5,49.4,29.92,WSW,257,1.0,1.0,80,0.00,,,0.00,0,WeatherCatV1.15B25,2013-04-10 08:41:00,
2013-04-10 04:46:00,55.1,49.0,29.92,WSW,257,0.0,1.0,80,0.00,,,0.00,0,WeatherCatV1.15B25,2013-04-10 08:46:00,
2013-04-10 04:51:00,54.8,49.1,29.92,WSW,257,0.0,1.0,81,0.00,,,0.00,0,WeatherCatV1.15B25,2013-04-10 08:51:00,
2013-04-10 04:56:00,54.6,48.9,29.92,WSW,257,0.0,2.0,81,0.00,,,0.00,0,WeatherCatV1.15B25,2013-04-10 08:56:00,
2013-04-10 05:01:00,54.5,49.1,29.92,WSW,257,0.0,1.0,82,0.00,,,0.00,0,WeatherCatV1.15B25,2013-04-10 09:01:00,
2013-04-10 05:06:00,54.4,48.7,29.93,WSW,257,1.0,2.0,81,0.00,,,0.00,0,WeatherCatV1.15B25,2013-04-10 09:06:00,
2013-04-10 05:11:00,54.4,49.0,29.93,WSW,257,1.0,2.0,82,0.00,,,0.00,0,WeatherCatV1.15B25,2013-04-10 09:11:00,
2013-04-10 05:16:00,54.3,48.9,29.93,WSW,257,0.0,1.0,82,0.00,,,0.00,0,WeatherCatV1.15B25,2013-04-10 09:16:00,
2013-04-10 05:21:00,54.3,48.9,29.93,WSW,257,0.0,0.0,82,0.00,,,0.00,0,WeatherCatV1.15B25,2013-04-10 09:21:00,
2013-04-10 05:26:00,54.4,49.0,29.92,WSW,257,0.0,0.0,82,0.00,,,0.00,0,WeatherCatV1.15B25,2013-04-10 09:26:00,
2013-04-10 05:31:00,54.4,48.7,29.93,WSW,257,0.0,2.0,81,0.00,,,0.00,0,WeatherCatV1.15B25,2013-04-10 09:31:00,
2013-04-10 05:36:00,54.2,48.5,29.93,WSW,255,2.0,2.0,81,0.00,,,0.00,0,WeatherCatV1.15B25,2013-04-10 09:36:00,
2013-04-10 05:41:00,54.2,48.8,29.93,WSW,254,1.0,2.0,82,0.00,,,0.00,0,WeatherCatV1.15B25,2013-04-10 09:41:00,
2013-04-10 05:46:00,54.2,48.8,29.93,WSW,254,1.0,1.0,82,0.00,,,0.00,0,WeatherCatV1.15B25,2013-04-10 09:46:00,
2013-04-10 05:51:00,54.4,49.0,29.93,WSW,256,1.0,1.0,82,0.00,,,0.00,0,WeatherCatV1.15B25,2013-04-10 09:51:00,
2013-04-10 05:56:00,54.6,49.2,29.94,WSW,256,0.0,1.0,82,0.00,,,0.00,0,WeatherCatV1.15B25,2013-04-10 09:56:00,
2013-04-10 06:01:00,54.8,49.1,29.93,WSW,256,1.0,1.0,81,0.00,,,0.00,0,WeatherCatV1.15B25,2013-04-10 10:01:00,
2013-04-10 06:06:00,54.8,49.1,29.94,WSW,256,1.0,2.0,81,0.00,,,0.00,0,WeatherCatV1.15B25,2013-04-10 10:06:00,
2013-04-10 06:11:00,54.7,49.0,29.94,WSW,252,2.0,2.0,81,0.00,,,0.00,0,WeatherCatV1.15B25,2013-04-10 10:11:00,
2013-04-10 06:16:00,54.5,48.8,29.94,WSW,247,1.0,2.0,81,0.00,,,0.00,0,WeatherCatV1.15B25,2013-04-10 10:16:00,
2013-04-10 06:21:00,54.3,48.6,29.94,WSW,246,0.0,3.0,81,0.00,,,0.00,0,WeatherCatV1.15B25,2013-04-10 10:21:00,
2013-04-10 06:26:00,54.1,48.4,29.94,WSW,248,1.0,2.0,81,0.00,,,0.00,0,WeatherCatV1.15B25,2013-04-10 10:26:00,
2013-04-10 06:31:00,53.9,48.5,29.95,WSW,246,1.0,3.0,82,0.00,,,0.00,0,WeatherCatV1.15B25,2013-04-10 10:31:00,
2013-04-10 06:36:00,54.3,48.9,29.95,SW,218,1.0,2.0,82,0.00,,,0.00,0,WeatherCatV1.15B25,2013-04-10 10:36:00,
2013-04-10 06:41:00,54.7,49.0,29.95,WSW,241,1.0,3.0,81,0.00,,,0.00,0,WeatherCatV1.15B25,2013-04-10 10:41:00,
2013-04-10 06:46:00,54.8,48.7,29.95,WSW,246,0.0,3.0,80,0.00,,,0.00,5,WeatherCatV1.15B25,2013-04-10 10:46:00,
2013-04-10 06:51:00,54.7,48.7,29.94,WSW,246,1.0,3.0,80,0.00,,,0.00,11,WeatherCatV1.15B25,2013-04-10 10:51:00,
2013-04-10 06:56:00,54.6,48.9,29.94,WSW,250,1.0,2.0,81,0.00,,,0.00,14,WeatherCatV1.15B25,2013-04-10 10:56:00,
2013-04-10 07:01:00,54.4,48.7,29.94,WSW,249,3.0,3.0,81,0.00,,,0.00,21,WeatherCatV1.15B25,2013-04-10 11:01:00,
2013-04-10 07:06:00,54.5,48.8,29.95,West,260,1.0,2.0,81,0.00,,,0.00,28,WeatherCatV1.15B25,2013-04-10 11:06:00,
2013-04-10 07:11:00,54.9,49.2,29.95,WSW,252,1.0,2.0,81,0.00,,,0.00,35,WeatherCatV1.15B25,2013-04-10 11:11:00,
2013-04-10 07:16:00,55.6,49.5,29.95,WSW,248,1.0,2.0,80,0.00,,,0.00,44,WeatherCatV1.15B25,2013-04-10 11:16:00,
2013-04-10 07:21:00,56.0,49.6,29.95,WSW,247,1.0,2.0,79,0.00,,,0.00,54,WeatherCatV1.15B25,2013-04-10 11:21:00,
2013-04-10 07:26:00,56.3,49.9,29.94,WSW,246,0.0,1.0,79,0.00,,,0.00,65,WeatherCatV1.15B25,2013-04-10 11:26:00,
2013-04-10 07:29:00,56.4,50.0,29.94,WSW,246,1.0,1.0,79,0.00,,,0.00,76,WeatherCatV1.15B25,2013-04-10 11:29:00,
2013-04-10 07:31:00,56.4,49.6,29.94,WSW,247,0.0,1.0,78,0.00,,,0.00,83,WeatherCatV1.15B25,2013-04-10 11:31:00,
2013-04-10 07:36:00,56.5,50.1,29.94,WSW,248,1.0,1.0,79,0.00,,,0.00,97,WeatherCatV1.15B25,2013-04-10 11:36:00,
2013-04-10 07:37:00,56.5,50.1,29.94,WSW,249,1.0,2.0,79,0.00,,,0.00,102,WeatherCatV1.15B25,2013-04-10 11:37:00,
2013-04-10 07:42:00,56.8,50.4,29.94,WSW,251,1.0,2.0,79,0.00,,,0.00,118,WeatherCatV1.15B25,2013-04-10 11:42:00,
2013-04-10 07:46:00,57.2,51.1,29.94,WSW,251,0.0,0.0,80,0.00,,,0.00,128,WeatherCatV1.15B25,2013-04-10 11:46:00,
2013-04-10 07:51:00,57.8,51.3,29.94,WSW,251,1.0,2.0,79,0.00,,,0.00,149,WeatherCatV1.15B25,2013-04-10 11:51:00,
2013-04-10 07:56:00,58.5,51.0,29.94,WSW,251,1.0,2.0,76,0.00,,,0.00,158,WeatherCatV1.15B25,2013-04-10 11:56:00,
2013-04-10 08:01:00,59.4,52.2,29.95,WSW,251,1.0,2.0,77,0.00,,,0.00,165,WeatherCatV1.15B25,2013-04-10 12:01:00,
2013-04-10 08:06:00,60.2,53.0,29.95,WSW,251,0.0,0.0,77,0.00,,,0.00,172,WeatherCatV1.15B25,2013-04-10 12:06:00,
2013-04-10 08:11:00,60.8,52.5,29.95,WSW,251,0.0,1.0,74,0.00,,,0.00,207,WeatherCatV1.15B25,2013-04-10 12:11:00,
2013-04-10 08:16:00,61.4,52.7,29.95,WSW,251,0.0,0.0,73,0.00,,,0.00,213,WeatherCatV1.15B25,2013-04-10 12:16:00,
2013-04-10 08:21:00,62.2,53.1,29.95,WSW,251,0.0,1.0,72,0.00,,,0.00,223,WeatherCatV1.15B25,2013-04-10 12:21:00,
2013-04-10 08:26:00,63.0,53.4,29.95,WSW,251,0.0,0.0,71,0.00,,,0.00,236,WeatherCatV1.15B25,2013-04-10 12:26:00,
2013-04-10 08:31:00,64.1,54.9,29.95,WSW,251,0.0,0.0,72,0.00,,,0.00,199,WeatherCatV1.15B25,2013-04-10 12:31:00,
2013-04-10 08:36:00,64.8,55.9,29.95,SE,143,0.0,2.0,73,0.00,,,0.00,105,WeatherCatV1.15B25,2013-04-10 12:36:00,
2013-04-10 08:41:00,64.8,55.6,29.95,SE,143,0.0,1.0,72,0.00,,,0.00,111,WeatherCatV1.15B25,2013-04-10 12:41:00,
2013-04-10 08:46:00,64.8,54.4,29.95,SW,233,1.0,2.0,69,0.00,,,0.00,121,WeatherCatV1.15B25,2013-04-10 12:46:00,
2013-04-10 08:51:00,65.0,53.8,29.95,SW,233,1.0,2.0,67,0.00,,,0.00,134,WeatherCatV1.15B25,2013-04-10 12:51:00,
2013-04-10 08:56:00,65.4,55.0,29.95,SW,234,1.0,2.0,69,0.00,,,0.00,148,WeatherCatV1.15B25,2013-04-10 12:56:00,
2013-04-10 09:01:00,65.8,55.7,29.95,SW,234,2.0,2.0,70,0.00,,,0.00,128,WeatherCatV1.15B25,2013-04-10 13:01:00,
2013-04-10 09:06:00,66.1,55.6,29.94,SW,234,1.0,2.0,69,0.00,,,0.00,142,WeatherCatV1.15B25,2013-04-10 13:06:00,
2013-04-10 09:11:00,66.5,56.0,29.94,SW,234,2.0,2.0,69,0.00,,,0.00,155,WeatherCatV1.15B25,2013-04-10 13:11:00,
2013-04-10 09:16:00,67.0,54.8,29.94,SW,234,1.0,2.0,65,0.00,,,0.00,251,WeatherCatV1.15B25,2013-04-10 13:16:00,
2013-04-10 09:21:00,67.8,55.2,29.94,SW,235,1.0,2.0,64,0.00,,,0.00,374,WeatherCatV1.15B25,2013-04-10 13:21:00,
2013-04-10 09:26:00,68.9,56.2,29.94,SW,226,1.0,2.0,64,0.00,,,0.00,448,WeatherCatV1.15B25,2013-04-10 13:26:00,
2013-04-10 09:31:00,70.2,57.4,29.94,WSW,243,1.0,2.0,64,0.00,,,0.00,478,WeatherCatV1.15B25,2013-04-10 13:31:00,
2013-04-10 09:36:00,71.6,57.0,29.94,WSW,245,1.0,2.0,60,0.00,,,0.00,492,WeatherCatV1.15B25,2013-04-10 13:36:00,
2013-04-10 09:41:00,73.1,56.9,29.94,West,260,1.0,4.0,57,0.00,,,0.00,527,WeatherCatV1.15B25,2013-04-10 13:41:00,
2013-04-10 09:46:00,74.7,57.9,29.94,WSW,240,0.0,2.0,56,0.00,,,0.00,501,WeatherCatV1.15B25,2013-04-10 13:46:00,
2013-04-10 09:51:00,76.0,58.1,29.93,WSW,256,2.0,2.0,54,0.00,,,0.00,533,WeatherCatV1.15B25,2013-04-10 13:51:00,
2013-04-10 09:56:00,77.3,57.7,29.93,West,264,4.0,4.0,51,0.00,,,0.00,561,WeatherCatV1.15B25,2013-04-10 13:56:00,
2013-04-10 09:59:00,78.0,58.4,29.93,WSW,248,3.0,4.0,51,0.00,,,0.00,573,WeatherCatV1.15B25,2013-04-10 13:59:00,
2013-04-10 10:01:00,78.4,58.8,29.93,West,260,5.0,7.0,51,0.00,,,0.00,580,WeatherCatV1.15B25,2013-04-10 14:01:00,
2013-04-10 10:06:00,79.5,58.1,29.93,West,260,4.0,10.0,48,0.00,,,0.00,587,WeatherCatV1.15B25,2013-04-10 14:06:00,
2013-04-10 10:11:00,80.2,58.1,29.93,West,262,5.0,11.0,47,0.00,,,0.00,599,WeatherCatV1.15B25,2013-04-10 14:11:00,
2013-04-10 10:16:00,80.6,59.1,29.93,West,262,5.0,8.0,48,0.00,,,0.00,626,WeatherCatV1.15B25,2013-04-10 14:16:00,
2013-04-10 10:21:00,81.3,58.5,29.93,WSW,247,9.0,15.0,46,0.00,,,0.00,629,WeatherCatV1.15B25,2013-04-10 14:21:00,
2013-04-10 10:26:00,81.4,58.6,29.92,WNW,293,7.0,10.0,46,0.00,,,0.00,626,WeatherCatV1.15B25,2013-04-10 14:26:00,
2013-04-10 10:31:00,81.6,58.8,29.92,SW,227,5.0,6.0,46,0.00,,,0.00,680,WeatherCatV1.15B25,2013-04-10 14:31:00,
2013-04-10 10:36:00,82.1,58.6,29.92,West,262,9.0,16.0,45,0.00,,,0.00,707,WeatherCatV1.15B25,2013-04-10 14:36:00,
2013-04-10 10:41:00,82.1,58.6,29.92,WSW,256,8.0,8.0,45,0.00,,,0.00,707,WeatherCatV1.15B25,2013-04-10 14:41:00,
2013-04-10 10:46:00,82.4,58.3,29.92,WSW,239,4.0,8.0,44,0.00,,,0.00,751,WeatherCatV1.15B25,2013-04-10 14:46:00,
2013-04-10 10:51:00,82.9,58.7,29.92,WSW,258,5.0,12.0,44,0.00,,,0.00,230,WeatherCatV1.15B25,2013-04-10 14:51:00,
2013-04-10 10:56:00,82.7,57.9,29.92,WNW,296,10.0,14.0,43,0.00,,,0.00,824,WeatherCatV1.15B25,2013-04-10 14:56:00,
2013-04-10 11:01:00,82.6,58.4,29.92,WSW,245,8.0,11.0,44,0.00,,,0.00,225,WeatherCatV1.15B25,2013-04-10 15:01:00,
2013-04-10 11:06:00,82.8,59.3,29.92,West,263,11.0,12.0,45,0.00,,,0.00,828,WeatherCatV1.15B25,2013-04-10 15:06:00,
2013-04-10 11:11:00,83.1,58.9,29.92,WNW,300,6.0,10.0,44,0.00,,,0.00,802,WeatherCatV1.15B25,2013-04-10 15:11:00,
2013-04-10 11:16:00,83.6,58.7,29.92,West,277,5.0,9.0,43,0.00,,,0.00,255,WeatherCatV1.15B25,2013-04-10 15:16:00,
2013-04-10 11:21:00,84.0,59.1,29.92,WNW,287,8.0,12.0,43,0.00,,,0.00,780,WeatherCatV1.15B25,2013-04-10 15:21:00,
2013-04-10 11:26:00,83.9,58.3,29.91,WNW,303,8.0,9.0,42,0.00,,,0.00,190,WeatherCatV1.15B25,2013-04-10 15:26:00,
2013-04-10 11:31:00,84.0,60.3,29.91,West,262,7.0,8.0,45,0.00,,,0.00,816,WeatherCatV1.15B25,2013-04-10 15:31:00,
2013-04-10 11:35:00,84.5,58.2,29.91,NNW,348,1.0,8.0,41,0.00,,,0.00,780,WeatherCatV1.15B25,2013-04-10 15:35:00,
2013-04-10 11:36:00,84.5,58.2,29.91,West,262,5.0,8.0,41,0.00,,,0.00,223,WeatherCatV1.15B25,2013-04-10 15:36:00,
2013-04-10 11:40:00,84.7,58.4,29.91,South,176,3.0,10.0,41,0.00,,,0.00,886,WeatherCatV1.15B25,2013-04-10 15:40:00,
2013-04-10 11:45:00,85.6,59.2,29.91,WNW,291,3.0,5.0,41,0.00,,,0.00,851,WeatherCatV1.15B25,2013-04-10 15:45:00,
2013-04-10 11:46:00,85.8,59.3,29.91,NW,305,3.0,7.0,41,0.00,,,0.00,851,WeatherCatV1.15B25,2013-04-10 15:46:00,
2013-04-10 11:51:00,86.4,58.5,29.91,West,277,12.0,13.0,39,0.00,,,0.00,856,WeatherCatV1.15B25,2013-04-10 15:51:00,
2013-04-10 11:56:00,86.2,58.3,29.91,WNW,293,9.0,12.0,39,0.00,,,0.00,891,WeatherCatV1.15B25,2013-04-10 15:56:00,
2013-04-10 12:01:00,85.6,57.8,29.90,NW,309,23.0,23.0,39,0.00,,,0.00,153,WeatherCatV1.15B25,2013-04-10 16:01:00,
2013-04-10 12:08:00,85.6,57.8,29.90,WNW,287,6.0,10.0,39,0.00,,,0.00,868,WeatherCatV1.15B25,2013-04-10 16:08:00,
2013-04-10 12:13:00,86.2,57.6,29.90,West,269,9.0,9.0,38,0.00,,,0.00,872,WeatherCatV1.15B25,2013-04-10 16:13:00,
2013-04-10 12:16:00,86.1,57.5,29.90,NW,304,10.0,11.0,38,0.00,,,0.00,875,WeatherCatV1.15B25,2013-04-10 16:16:00,
2013-04-10 12:21:00,86.3,56.9,29.90,SW,224,9.0,20.0,37,0.00,,,0.00,882,WeatherCatV1.15B25,2013-04-10 16:21:00,
2013-04-10 12:26:00,86.3,56.2,29.89,WNW,285,5.0,11.0,36,0.00,,,0.00,877,WeatherCatV1.15B25,2013-04-10 16:26:00,
2013-04-10 12:31:00,86.9,57.5,29.89,WSW,245,7.0,9.0,37,0.00,,,0.00,884,WeatherCatV1.15B25,2013-04-10 16:31:00,
2013-04-10 12:36:00,86.8,57.4,29.89,WNW,295,5.0,11.0,37,0.00,,,0.00,896,WeatherCatV1.15B25,2013-04-10 16:36:00,
2013-04-10 12:41:00,87.4,57.1,29.89,West,276,4.0,9.0,36,0.00,,,0.00,895,WeatherCatV1.15B25,2013-04-10 16:41:00,
2013-04-10 12:46:00,87.7,57.4,29.89,West,273,7.0,11.0,36,0.00,,,0.00,951,WeatherCatV1.15B25,2013-04-10 16:46:00,
2013-04-10 12:51:00,87.5,57.2,29.89,WSW,256,2.0,8.0,36,0.00,,,0.00,932,WeatherCatV1.15B25,2013-04-10 16:51:00,
2013-04-10 12:56:00,87.4,57.9,29.88,WNW,285,6.0,8.0,37,0.00,,,0.00,918,WeatherCatV1.15B25,2013-04-10 16:56:00,
2013-04-10 13:01:00,88.0,56.9,29.88,West,281,2.0,11.0,35,0.00,,,0.00,919,WeatherCatV1.15B25,2013-04-10 17:01:00,
2013-04-10 13:06:00,88.7,56.7,29.88,West,260,6.0,6.0,34,0.00,,,0.00,916,WeatherCatV1.15B25,2013-04-10 17:06:00,
2013-04-10 13:11:00,88.0,56.9,29.87,NW,317,6.0,10.0,35,0.00,,,0.00,128,WeatherCatV1.15B25,2013-04-10 17:11:00,
2013-04-10 13:16:00,87.7,56.6,29.87,SW,232,6.0,10.0,35,0.00,,,0.00,956,WeatherCatV1.15B25,2013-04-10 17:16:00,
2013-04-10 13:20:00,88.3,57.9,29.87,WSW,248,7.0,7.0,36,0.00,,,0.00,355,WeatherCatV1.15B25,2013-04-10 17:20:00,
2013-04-10 13:25:00,88.5,57.3,29.87,West,259,8.0,9.0,35,0.00,,,0.00,192,WeatherCatV1.15B25,2013-04-10 17:25:00,
2013-04-10 13:26:00,88.4,57.2,29.87,WNW,291,6.0,9.0,35,0.00,,,0.00,192,WeatherCatV1.15B25,2013-04-10 17:26:00,
2013-04-10 13:32:00,88.9,56.9,29.86,WNW,296,3.0,5.0,34,0.00,,,0.00,942,WeatherCatV1.15B25,2013-04-10 17:32:00,
2013-04-10 13:36:00,89.5,59.0,29.86,SW,236,3.0,5.0,36,0.00,,,0.00,960,WeatherCatV1.15B25,2013-04-10 17:36:00,
2013-04-10 13:37:00,89.6,57.5,29.86,ESE,116,3.0,8.0,34,0.00,,,0.00,960,WeatherCatV1.15B25,2013-04-10 17:37:00,
2013-04-10 13:41:00,90.2,57.2,29.87,WSW,241,7.0,11.0,33,0.00,,,0.00,918,WeatherCatV1.15B25,2013-04-10 17:41:00,
2013-04-10 13:46:00,90.3,56.4,29.86,WSW,258,1.0,6.0,32,0.00,,,0.00,838,WeatherCatV1.15B25,2013-04-10 17:46:00,
2013-04-10 13:51:00,90.5,58.3,29.86,NW,312,6.0,8.0,34,0.00,,,0.00,255,WeatherCatV1.15B25,2013-04-10 17:51:00,
2013-04-10 13:56:00,90.5,55.7,29.86,WSW,257,11.0,17.0,31,0.00,,,0.00,272,WeatherCatV1.15B25,2013-04-10 17:56:00,
2013-04-10 14:01:00,89.9,55.2,29.86,WSW,246,10.0,12.0,31,0.00,,,0.00,888,WeatherCatV1.15B25,2013-04-10 18:01:00,
2013-04-10 14:06:00,88.4,55.6,29.87,West,263,4.0,13.0,33,0.00,,,0.00,325,WeatherCatV1.15B25,2013-04-10 18:06:00,
2013-04-10 14:11:00,87.5,55.6,29.86,NW,312,7.0,11.0,34,0.00,,,0.00,200,WeatherCatV1.15B25,2013-04-10 18:11:00,
2013-04-10 14:16:00,87.9,56.8,29.86,SW,232,6.0,7.0,35,0.00,,,0.00,928,WeatherCatV1.15B25,2013-04-10 18:16:00,
2013-04-10 14:21:00,89.4,57.3,29.85,SSE,155,6.0,8.0,34,0.00,,,0.00,265,WeatherCatV1.15B25,2013-04-10 18:21:00,
2013-04-10 14:26:00,89.8,56.0,29.86,SW,235,6.0,14.0,32,0.00,,,0.00,904,WeatherCatV1.15B25,2013-04-10 18:26:00,
2013-04-10 14:31:00,89.7,56.7,29.86,WNW,302,6.0,13.0,33,0.00,,,0.00,846,WeatherCatV1.15B25,2013-04-10 18:31:00,
2013-04-10 14:36:00,89.7,56.7,29.85,SW,236,6.0,10.0,33,0.00,,,0.00,803,WeatherCatV1.15B25,2013-04-10 18:36:00,
2013-04-10 14:41:00,90.2,55.4,29.85,WNW,292,7.0,14.0,31,0.00,,,0.00,846,WeatherCatV1.15B25,2013-04-10 18:41:00,
2013-04-10 14:46:00,90.2,55.4,29.84,WSW,246,6.0,12.0,31,0.00,,,0.00,780,WeatherCatV1.15B25,2013-04-10 18:46:00,
2013-04-10 14:51:00,90.1,55.3,29.84,West,269,10.0,13.0,31,0.00,,,0.00,338,WeatherCatV1.15B25,2013-04-10 18:51:00,
2013-04-10 14:54:00,89.9,56.0,29.84,WSW,248,12.0,12.0,32,0.00,,,0.00,763,WeatherCatV1.15B25,2013-04-10 18:54:00,
2013-04-10 14:56:00,89.8,55.1,29.84,West,281,5.0,12.0,31,0.00,,,0.00,250,WeatherCatV1.15B25,2013-04-10 18:56:00,
2013-04-10 15:01:00,89.4,55.6,29.84,NNW,342,6.0,11.0,32,0.00,,,0.00,800,WeatherCatV1.15B25,2013-04-10 19:01:00,
2013-04-10 15:06:00,90.1,57.1,29.84,NW,313,12.0,12.0,33,0.00,,,0.00,816,WeatherCatV1.15B25,2013-04-10 19:06:00,
2013-04-10 15:11:00,90.4,56.5,29.83,West,274,3.0,12.0,32,0.00,,,0.00,735,WeatherCatV1.15B25,2013-04-10 19:11:00,
2013-04-10 15:16:00,90.8,56.8,29.83,WNW,284,4.0,6.0,32,0.00,,,0.00,664,WeatherCatV1.15B25,2013-04-10 19:16:00,
2013-04-10 15:21:00,91.3,56.4,29.83,West,260,9.0,14.0,31,0.00,,,0.00,758,WeatherCatV1.15B25,2013-04-10 19:21:00,
2013-04-10 15:26:00,91.3,56.4,29.82,NW,304,8.0,12.0,31,0.00,,,0.00,761,WeatherCatV1.15B25,2013-04-10 19:26:00,
2013-04-10 15:32:00,91.3,55.5,29.82,WSW,254,0.0,14.0,30,0.00,,,0.00,606,WeatherCatV1.15B25,2013-04-10 19:32:00,
2013-04-10 15:36:00,91.4,54.6,29.82,West,262,8.0,12.0,29,0.00,,,0.00,701,WeatherCatV1.15B25,2013-04-10 19:36:00,
2013-04-10 15:41:00,91.1,55.3,29.82,WSW,251,10.0,11.0,30,0.00,,,0.00,684,WeatherCatV1.15B25,2013-04-10 19:41:00,
2013-04-10 15:46:00,90.8,55.9,29.82,WSW,257,4.0,7.0,31,0.00,,,0.00,610,WeatherCatV1.15B25,2013-04-10 19:46:00,
2013-04-10 15:51:00,90.6,56.7,29.81,South,190,3.0,6.0,32,0.00,,,0.00,675,WeatherCatV1.15B25,2013-04-10 19:51:00,
2013-04-10 15:56:00,90.9,55.1,29.81,WSW,239,7.0,9.0,30,0.00,,,0.00,568,WeatherCatV1.15B25,2013-04-10 19:56:00,
2013-04-10 16:01:00,91.0,55.2,29.81,WNW,282,5.0,7.0,30,0.00,,,0.00,487,WeatherCatV1.15B25,2013-04-10 20:01:00,
2013-04-10 16:06:00,90.9,55.1,29.81,West,270,4.0,4.0,30,0.00,,,0.00,438,WeatherCatV1.15B25,2013-04-10 20:06:00,
2013-04-10 16:11:00,91.0,55.2,29.81,WSW,244,5.0,5.0,30,0.00,,,0.00,517,WeatherCatV1.15B25,2013-04-10 20:11:00,
2013-04-10 16:16:00,91.3,55.5,29.81,SW,221,2.0,5.0,30,0.00,,,0.00,464,WeatherCatV1.15B25,2013-04-10 20:16:00,
2013-04-10 16:21:00,91.3,54.5,29.80,WSW,242,4.0,6.0,29,0.00,,,0.00,265,WeatherCatV1.15B25,2013-04-10 20:21:00,
2013-04-10 16:26:00,90.6,53.9,29.81,West,280,8.0,8.0,29,0.00,,,0.00,308,WeatherCatV1.15B25,2013-04-10 20:26:00,
2013-04-10 16:32:00,89.7,53.2,29.81,West,265,6.0,11.0,29,0.00,,,0.00,207,WeatherCatV1.15B25,2013-04-10 20:32:00,
2013-04-10 16:36:00,89.2,54.6,29.80,WSW,237,1.0,4.0,31,0.00,,,0.00,230,WeatherCatV1.15B25,2013-04-10 20:36:00,
2013-04-10 16:41:00,89.1,53.6,29.80,WNW,286,3.0,4.0,30,0.00,,,0.00,239,WeatherCatV1.15B25,2013-04-10 20:41:00,
2013-04-10 16:46:00,89.2,53.7,29.81,West,273,2.0,4.0,30,0.00,,,0.00,227,WeatherCatV1.15B25,2013-04-10 20:46:00,
2013-04-10 16:51:00,89.3,54.7,29.80,WSW,250,4.0,11.0,31,0.00,,,0.00,357,WeatherCatV1.15B25,2013-04-10 20:51:00,
2013-04-10 16:56:00,89.6,54.0,29.80,WSW,254,5.0,6.0,30,0.00,,,0.00,313,WeatherCatV1.15B25,2013-04-10 20:56:00,
2013-04-10 16:57:00,89.6,54.0,29.80,WSW,252,5.0,8.0,30,0.00,,,0.00,311,WeatherCatV1.15B25,2013-04-10 20:57:00,
2013-04-10 17:01:00,89.9,53.3,29.79,SW,224,7.0,9.0,29,0.00,,,0.00,295,WeatherCatV1.15B25,2013-04-10 21:01:00,
2013-04-10 17:06:00,89.8,53.3,29.79,WNW,293,6.0,13.0,29,0.00,,,0.00,308,WeatherCatV1.15B25,2013-04-10 21:06:00,
2013-04-10 17:11:00,89.6,54.0,29.78,SW,234,4.0,9.0,30,0.00,,,0.00,239,WeatherCatV1.15B25,2013-04-10 21:11:00,
2013-04-10 17:16:00,89.5,53.9,29.78,WSW,256,2.0,5.0,30,0.00,,,0.00,229,WeatherCatV1.15B25,2013-04-10 21:16:00,
2013-04-10 17:21:00,89.4,53.8,29.78,West,279,8.0,13.0,30,0.00,,,0.00,251,WeatherCatV1.15B25,2013-04-10 21:21:00,
2013-04-10 17:26:00,89.2,53.7,29.78,WNW,293,5.0,10.0,30,0.00,,,0.00,297,WeatherCatV1.15B25,2013-04-10 21:26:00,
2013-04-10 17:31:00,89.3,53.8,29.78,WSW,248,4.0,9.0,30,0.00,,,0.00,309,WeatherCatV1.15B25,2013-04-10 21:31:00,
2013-04-10 17:32:00,89.3,54.7,29.78,West,266,6.0,9.0,31,0.00,,,0.00,309,WeatherCatV1.15B25,2013-04-10 21:32:00,
2013-04-10 17:36:00,89.5,53.9,29.78,WSW,250,1.0,3.0,30,0.00,,,0.00,292,WeatherCatV1.15B25,2013-04-10 21:36:00,
2013-04-10 17:41:00,89.7,54.1,29.77,WNW,285,6.0,8.0,30,0.00,,,0.00,299,WeatherCatV1.15B25,2013-04-10 21:41:00,
2013-04-10 17:46:00,89.8,54.2,29.77,West,275,8.0,10.0,30,0.00,,,0.00,272,WeatherCatV1.15B25,2013-04-10 21:46:00,
2013-04-10 17:51:00,89.7,53.2,29.76,WSW,258,2.0,8.0,29,0.00,,,0.00,211,WeatherCatV1.15B25,2013-04-10 21:51:00,
2013-04-10 17:56:00,89.5,53.0,29.76,West,279,6.0,8.0,29,0.00,,,0.00,169,WeatherCatV1.15B25,2013-04-10 21:56:00,
2013-04-10 18:01:00,89.2,52.7,29.76,WSW,256,1.0,5.0,29,0.00,,,0.00,134,WeatherCatV1.15B25,2013-04-10 22:01:00,
2013-04-10 18:06:00,88.9,53.4,29.76,West,259,0.0,3.0,30,0.00,,,0.00,111,WeatherCatV1.15B25,2013-04-10 22:06:00,
2013-04-10 18:11:00,88.7,53.2,29.76,West,260,0.0,4.0,30,0.00,,,0.00,91,WeatherCatV1.15B25,2013-04-10 22:11:00,
2013-04-10 18:16:00,88.4,53.0,29.76,West,271,4.0,5.0,30,0.00,,,0.00,86,WeatherCatV1.15B25,2013-04-10 22:16:00,
2013-04-10 18:21:00,88.2,53.7,29.76,WSW,246,3.0,3.0,31,0.00,,,0.00,72,WeatherCatV1.15B25,2013-04-10 22:21:00,
2013-04-10 18:26:00,87.9,52.6,29.76,WSW,248,2.0,3.0,30,0.00,,,0.00,74,WeatherCatV1.15B25,2013-04-10 22:26:00,
2013-04-10 18:31:00,87.8,53.4,29.76,West,271,0.0,0.0,31,0.00,,,0.00,70,WeatherCatV1.15B25,2013-04-10 22:31:00,
2013-04-10 18:36:00,87.6,53.2,29.76,West,271,0.0,1.0,31,0.00,,,0.00,58,WeatherCatV1.15B25,2013-04-10 22:36:00,
2013-04-10 18:41:00,87.3,53.8,29.76,West,268,0.0,0.0,32,0.00,,,0.00,56,WeatherCatV1.15B25,2013-04-10 22:41:00,
2013-04-10 18:53:00,86.6,54.0,29.77,WNW,293,0.0,1.0,33,0.00,,,0.00,46,WeatherCatV1.15B25,2013-04-10 22:53:00,
2013-04-10 18:56:00,86.4,53.9,29.77,WNW,293,0.0,0.0,33,0.00,,,0.00,42,WeatherCatV1.15B25,2013-04-10 22:56:00,
2013-04-10 19:01:00,86.1,53.6,29.77,WNW,293,0.0,0.0,33,0.00,,,0.00,35,WeatherCatV1.15B25,2013-04-10 23:01:00,
2013-04-10 19:06:00,85.8,54.2,29.76,WNW,295,0.0,0.0,34,0.00,,,0.00,32,WeatherCatV1.15B25,2013-04-10 23:06:00,
2013-04-10 19:11:00,85.5,54.7,29.76,WNW,295,0.0,1.0,35,0.00,,,0.00,26,WeatherCatV1.15B25,2013-04-10 23:11:00,
2013-04-10 19:16:00,85.1,54.3,29.76,WNW,295,0.0,0.0,35,0.00,,,0.00,21,WeatherCatV1.15B25,2013-04-10 23:16:00,
2013-04-10 19:21:00,84.8,54.8,29.75,WNW,295,0.0,0.0,36,0.00,,,0.00,18,WeatherCatV1.15B25,2013-04-10 23:21:00,
2013-04-10 19:26:00,84.4,54.5,29.74,WNW,295,0.0,0.0,36,0.00,,,0.00,14,WeatherCatV1.15B25,2013-04-10 23:26:00,
2013-04-10 19:31:00,83.9,54.8,29.74,WNW,295,0.0,0.0,37,0.00,,,0.00,9,WeatherCatV1.15B25,2013-04-10 23:31:00,
2013-04-10 19:34:00,83.6,55.3,29.74,WNW,295,0.0,0.0,38,0.00,,,0.00,7,WeatherCatV1.15B25,2013-04-10 23:34:00,
2013-04-10 19:36:00,83.3,55.0,29.75,WNW,295,0.0,0.0,38,0.00,,,0.00,5,WeatherCatV1.15B25,2013-04-10 23:36:00,
2013-04-10 19:41:00,82.4,54.9,29.75,WNW,295,1.0,1.0,39,0.00,,,0.00,0,WeatherCatV1.15B25,2013-04-10 23:41:00,
2013-04-10 19:46:00,81.5,55.5,29.75,WNW,295,1.0,2.0,41,0.00,,,0.00,0,WeatherCatV1.15B25,2013-04-10 23:46:00,
2013-04-10 19:51:00,80.4,54.5,29.75,WNW,295,1.0,1.0,41,0.00,,,0.00,0,WeatherCatV1.15B25,2013-04-10 23:51:00,
2013-04-10 19:56:00,79.6,54.5,29.75,WNW,295,0.0,1.0,42,0.00,,,0.00,0,WeatherCatV1.15B25,2013-04-10 23:56:00,
2013-04-10 20:01:00,79.1,54.7,29.75,WNW,299,2.0,2.0,43,0.00,,,0.00,0,WeatherCatV1.15B25,2013-04-11 00:01:00,
2013-04-10 20:06:00,78.8,54.4,29.76,WNW,299,0.0,1.0,43,0.00,,,0.00,0,WeatherCatV1.15B25,2013-04-11 00:06:00,
2013-04-10 20:11:00,78.4,54.7,29.75,WNW,299,0.0,0.0,44,0.00,,,0.00,0,WeatherCatV1.15B25,2013-04-11 00:11:00,
2013-04-10 20:16:00,78.1,54.4,29.76,WNW,299,0.0,2.0,44,0.00,,,0.00,0,WeatherCatV1.15B25,2013-04-11 00:16:00,
2013-04-10 20:21:00,77.9,54.2,29.76,WNW,302,2.0,3.0,44,0.00,,,0.00,0,WeatherCatV1.15B25,2013-04-11 00:21:00,
2013-04-10 20:26:00,77.9,54.2,29.76,WNW,295,0.0,1.0,44,0.00,,,0.00,0,WeatherCatV1.15B25,2013-04-11 00:26:00,
2013-04-10 20:31:00,77.7,54.6,29.76,WNW,296,0.0,0.0,45,0.00,,,0.00,0,WeatherCatV1.15B25,2013-04-11 00:31:00,
2013-04-10 20:36:00,77.3,54.9,29.76,WNW,297,0.0,1.0,46,0.00,,,0.00,0,WeatherCatV1.15B25,2013-04-11 00:36:00,
2013-04-10 20:41:00,77.0,55.2,29.76,WNW,297,0.0,0.0,47,0.00,,,0.00,0,WeatherCatV1.15B25,2013-04-11 00:41:00,
2013-04-10 20:46:00,76.7,54.9,29.77,WNW,297,0.0,0.0,47,0.00,,,0.00,0,WeatherCatV1.15B25,2013-04-11 00:46:00,
2013-04-10 20:51:00,76.5,54.2,29.77,WNW,297,0.0,1.0,46,0.00,,,0.00,0,WeatherCatV1.15B25,2013-04-11 00:51:00,
2013-04-10 20:56:00,76.2,54.5,29.77,NW,312,0.0,1.0,47,0.00,,,0.00,0,WeatherCatV1.15B25,2013-04-11 00:56:00,
2013-04-10 21:01:00,76.0,54.3,29.78,NW,312,0.0,0.0,47,0.00,,,0.00,0,WeatherCatV1.15B25,2013-04-11 01:01:00,
2013-04-10 21:06:00,75.7,54.6,29.78,West,262,0.0,0.0,48,0.00,,,0.00,0,WeatherCatV1.15B25,2013-04-11 01:06:00,
2013-04-10 21:11:00,75.4,54.9,29.78,West,262,0.0,1.0,49,0.00,,,0.00,0,WeatherCatV1.15B25,2013-04-11 01:11:00,
2013-04-10 21:16:00,75.1,54.6,29.78,West,262,0.0,1.0,49,0.00,,,0.00,0,WeatherCatV1.15B25,2013-04-11 01:16:00,
2013-04-10 21:21:00,74.8,54.3,29.79,West,269,1.0,1.0,49,0.00,,,0.00,0,WeatherCatV1.15B25,2013-04-11 01:21:00,
2013-04-10 21:26:00,74.6,54.2,29.79,West,269,0.0,0.0,49,0.00,,,0.00,0,WeatherCatV1.15B25,2013-04-11 01:26:00,
2013-04-10 21:31:00,74.4,54.5,29.79,West,269,0.0,0.0,50,0.00,,,0.00,0,WeatherCatV1.15B25,2013-04-11 01:31:00,
2013-04-10 21:36:00,74.3,55.0,29.79,West,269,0.0,1.0,51,0.00,,,0.00,0,WeatherCatV1.15B25,2013-04-11 01:36:00,
2013-04-10 21:41:00,74.2,54.9,29.79,West,274,0.0,2.0,51,0.00,,,0.00,0,WeatherCatV1.15B25,2013-04-11 01:41:00,
2013-04-10 21:46:00,74.0,54.2,29.79,West,264,0.0,1.0,50,0.00,,,0.00,0,WeatherCatV1.15B25,2013-04-11 01:46:00,
2013-04-10 21:51:00,74.0,55.2,29.79,West,264,0.0,0.0,52,0.00,,,0.00,0,WeatherCatV1.15B25,2013-04-11 01:51:00,
2013-04-10 21:56:00,73.7,55.5,29.79,West,264,0.0,0.0,53,0.00,,,0.00,0,WeatherCatV1.15B25,2013-04-11 01:56:00,
2013-04-10 22:01:00,73.5,55.3,29.79,West,273,0.0,0.0,53,0.00,,,0.00,0,WeatherCatV1.15B25,2013-04-11 02:01:00,
2013-04-10 22:06:00,73.5,55.3,29.79,West,273,0.0,1.0,53,0.00,,,0.00,0,WeatherCatV1.15B25,2013-04-11 02:06:00,
2013-04-10 22:11:00,73.3,55.1,29.79,West,276,1.0,1.0,53,0.00,,,0.00,0,WeatherCatV1.15B25,2013-04-11 02:11:00,
2013-04-10 22:16:00,73.1,54.9,29.79,WNW,287,0.0,2.0,53,0.00,,,0.00,0,WeatherCatV1.15B25,2013-04-11 02:16:00,
2013-04-10 22:21:00,73.0,54.3,29.79,WNW,287,1.0,1.0,52,0.00,,,0.00,0,WeatherCatV1.15B25,2013-04-11 02:21:00,
2013-04-10 22:24:00,72.9,54.8,29.79,WNW,287,0.0,0.0,53,0.00,,,0.00,0,WeatherCatV1.15B25,2013-04-11 02:24:00,
2013-04-10 22:26:00,72.9,53.7,29.79,WNW,287,0.0,1.0,51,0.00,,,0.00,0,WeatherCatV1.15B25,2013-04-11 02:26:00,
2013-04-10 22:29:00,72.8,54.7,29.79,WNW,287,0.0,2.0,53,0.00,,,0.00,0,WeatherCatV1.15B25,2013-04-11 02:29:00,
2013-04-10 22:34:00,72.6,54.5,29.79,WNW,287,1.0,2.0,53,0.00,,,0.00,0,WeatherCatV1.15B25,2013-04-11 02:34:00,
2013-04-10 22:39:00,72.4,54.3,29.80,WNW,288,1.0,2.0,53,0.00,,,0.00,0,WeatherCatV1.15B25,2013-04-11 02:39:00,
2013-04-10 22:41:00,72.3,54.2,29.80,WNW,288,0.0,2.0,53,0.00,,,0.00,0,WeatherCatV1.15B25,2013-04-11 02:41:00,
2013-04-10 22:46:00,72.1,54.5,29.80,West,265,2.0,2.0,54,0.00,,,0.00,0,WeatherCatV1.15B25,2013-04-11 02:46:00,
2013-04-10 22:51:00,72.0,54.9,29.81,West,269,1.0,1.0,55,0.00,,,0.00,0,WeatherCatV1.15B25,2013-04-11 02:51:00,
2013-04-10 22:56:00,71.8,54.2,29.81,West,263,1.0,2.0,54,0.00,,,0.00,0,WeatherCatV1.15B25,2013-04-11 02:56:00,
2013-04-10 23:01:00,71.9,54.3,29.81,West,263,0.0,2.0,54,0.00,,,0.00,0,WeatherCatV1.15B25,2013-04-11 03:01:00,
2013-04-10 23:06:00,72.0,54.4,29.81,West,277,0.0,0.0,54,0.00,,,0.00,0,WeatherCatV1.15B25,2013-04-11 03:06:00,
2013-04-10 23:09:00,71.9,54.3,29.82,West,277,0.0,0.0,54,0.00,,,0.00,0,WeatherCatV1.15B25,2013-04-11 03:09:00,
2013-04-10 23:11:00,72.1,54.5,29.81,West,260,2.0,9.0,54,0.00,,,0.00,0,WeatherCatV1.15B25,2013-04-11 03:11:00,
2013-04-10 23:16:00,72.2,54.6,29.82,NW,314,0.0,3.0,54,0.00,,,0.00,0,WeatherCatV1.15B25,2013-04-11 03:16:00,
2013-04-10 23:21:00,71.9,54.3,29.82,NW,310,2.0,6.0,54,0.00,,,0.00,0,WeatherCatV1.15B25,2013-04-11 03:21:00,
2013-04-10 23:26:00,72.0,55.4,29.82,West,261,0.0,1.0,56,0.00,,,0.00,0,WeatherCatV1.15B25,2013-04-11 03:26:00,
2013-04-10 23:28:00,71.9,54.8,29.82,West,261,0.0,0.0,55,0.00,,,0.00,0,WeatherCatV1.15B25,2013-04-11 03:28:00,
2013-04-10 23:31:00,71.8,54.7,29.83,West,264,1.0,1.0,55,0.00,,,0.00,0,WeatherCatV1.15B25,2013-04-11 03:31:00,
2013-04-10 23:33:00,71.9,54.3,29.83,ENE,64,8.0,8.0,54,0.00,,,0.00,0,WeatherCatV1.15B25,2013-04-11 03:33:00,
2013-04-10 23:36:00,73.6,55.9,29.86,WNW,289,7.0,15.0,54,0.00,,,0.00,0,WeatherCatV1.15B25,2013-04-11 03:36:00,
2013-04-10 23:41:00,74.5,56.2,29.87,NW,322,7.0,16.0,53,0.00,,,0.00,0,WeatherCatV1.15B25,2013-04-11 03:41:00,
2013-04-10 23:46:00,74.2,56.0,29.86,North,359,5.0,25.0,53,0.00,,,0.00,0,WeatherCatV1.15B25,2013-04-11 03:46:00,
2013-04-10 23:51:00,73.7,55.5,29.87,NNW,343,8.0,12.0,53,0.00,,,0.00,0,WeatherCatV1.15B25,2013-04-11 03:51:00,
2013-04-10 23:56:00,73.4,55.2,29.86,NNE,31,12.0,15.0,53,0.00,,,0.00,0,WeatherCatV1.15B25,2013-04-11 03:56:00,